This is the latest recevied weather packets stored in our database for station/object OE5RBO. If no packets are shown the sender has not sent any weather packets the latest 10 day(s).
| Time | Temp. | Humidity | Pressure | Rain* | Wind** | Luminosity | Snow |
|---|---|---|---|---|---|---|---|
| 1787723261 | 15° C | 100% | 1016.8 hPa | 0.25 mm | - | - | - |
| 1787722061 | 14.44° C | 100% | 1016.4 hPa | 0.25 mm | - | - | - |
| 1787721460 | 14.44° C | 100% | 1016.6 hPa | 0.25 mm | - | - | - |
| 1787719059 | 13.89° C | 100% | 1016.5 hPa | 0.25 mm | - | - | - |
| 1787718458 | 13.89° C | 100% | 1016.3 hPa | 0.25 mm | - | - | - |
| 1787717258 | 13.89° C | 100% | 1016.3 hPa | 0.25 mm | - | - | - |
| 1787716657 | 13.33° C | 100% | 1016.1 hPa | 0.25 mm | - | - | - |
| 1787715457 | 13.89° C | 100% | 1016.1 hPa | 0.25 mm | - | - | - |
| 1787714856 | 13.33° C | 100% | 1015.9 hPa | 0.25 mm | - | - | - |
| 1787714256 | 13.33° C | 100% | 1015.7 hPa | 0.25 mm | - | - | - |
| 1787713655 | 13.89° C | 100% | 1016.1 hPa | 0.25 mm | - | - | - |
| 1787713055 | 13.33° C | 100% | 1016.2 hPa | 0.25 mm | - | - | - |
| 1787712455 | 13.33° C | 100% | 1016.3 hPa | 0.25 mm | - | - | - |
| 1787711855 | 13.33° C | 100% | 1016.2 hPa | 0.25 mm | - | - | - |
| 1787711254 | 13.33° C | 100% | 1016.2 hPa | 0 mm | - | - | - |
| 1787710654 | 13.33° C | 100% | 1016.1 hPa | 0 mm | - | - | - |
| 1787710053 | 13.33° C | 100% | 1015.9 hPa | 0 mm | - | - | - |
| 1787709453 | 12.78° C | 100% | 1016.1 hPa | 0 mm | - | - | - |
| 1787707652 | 13.33° C | 100% | 1016.1 hPa | 0 mm | - | - | - |
| 1787707052 | 13.33° C | 100% | 1015.8 hPa | 0 mm | - | - | - |
| 1787706451 | 13.33° C | 100% | 1015.9 hPa | 0 mm | - | - | - |
| 1787705250 | 13.33° C | 100% | 1015.7 hPa | 0 mm | - | - | - |
| 1787704650 | 13.33° C | 100% | 1015.7 hPa | 0 mm | - | - | - |
| 1787704050 | 13.33° C | 100% | 1015.8 hPa | 0 mm | - | - | - |
| 1787703449 | 13.33° C | 100% | 1015.8 hPa | 0 mm | - | - | - |
* Rain since midnight (hover to see other rain measurements)
** Current wind speed in m/s (hover to see current wind gust speed)